Hourly Data Report for October 26, 2015

All times are specified in Local Standard Time (LST). Add 1 hour to adjust for Daylight Saving Time where and when it is observed.

RANKIN INLET A
NUNAVUT

62°48'38.000" N
92°06'53.000" W
32.30 m
2303405
71083
YRT

Download Data

Hourly Data (October 2015)
Hourly Data Report for October 26, 2015
Temp Definition
°C
Dew Point Temp Definition
°C
Rel Hum Definition
%
Wind Dir Definition
10's deg

Wind Spd Definition
km/h
Visibility Definition
km
Stn Press Definition
kPa
Hmdx Definition


Wind Chill Definition


Weather Definition


TIME
00:00 Legend Double Dagger -17.1 -20.1 78 30 32 24.1 100.60   -29 Ice Crystals,Blowing Snow
01:00 Legend Double Dagger -16.6 -19.4 79 31 42 24.1 100.57   -30 Ice Crystals,Blowing Snow
02:00 Legend Double Dagger -17.0 -20.0 78 30 40 24.1 100.57   -30 Ice Crystals,Blowing Snow
03:00 Legend Double Dagger -16.9 -19.7 79 30 45 24.1 100.50   -31 Ice Crystals,Blowing Snow
04:00 Legend Double Dagger -17.0 -19.8 79 31 44 24.1 100.49   -31 Ice Crystals,Blowing Snow
05:00 Legend Double Dagger -17.1 -19.9 79 30 43 24.1 100.47   -31 Ice Crystals,Blowing Snow
06:00 Legend Double Dagger -16.9 -19.7 79 30 44 24.1 100.46   -30 Ice Crystals,Blowing Snow
07:00 Legend Double Dagger -17.0 -19.8 79 30 35 24.1 100.54   -29 Ice Crystals,Blowing Snow
08:00 Legend Double Dagger -16.6 -19.4 79 30 41 24.1 100.57   -30 Ice Crystals,Blowing Snow
09:00 Legend Double Dagger -15.3 -17.9 81 31 45 24.1 100.59   -28 Ice Crystals,Blowing Snow
10:00 Legend Double Dagger -13.7 -16.5 80 31 48 4.8 100.63   -27 Ice Crystals,Blowing Snow
11:00 Legend Double Dagger -13.1 -15.4 83 30 38 1.2 100.71   -25 Ice Crystals,Blowing Snow
12:00 Legend Double Dagger -13.1 -15.6 82 30 41 1.2 100.76   -25 Ice Crystals,Blowing Snow
13:00 Legend Double Dagger -13.8 -16.5 80 30 36 24.1 100.81   -25 Ice Crystals,Blowing Snow
14:00 Legend Double Dagger -13.3 -15.9 81 31 43 6.4 100.82   -26 Ice Crystals,Blowing Snow
15:00 Legend Double Dagger -14.0 -16.9 79 30 42 24.1 100.86   -26 Ice Crystals,Blowing Snow
16:00 Legend Double Dagger -14.4 -17.3 79 30 46 24.1 100.88   -27 Ice Crystals,Blowing Snow
17:00 Legend Double Dagger -15.1 -17.8 80 31 39 24.1 100.91   -27 Ice Crystals,Blowing Snow
18:00 Legend Double Dagger -14.9 -17.6 80 31 36 16.1 100.95   -27 Ice Crystals,Blowing Snow
19:00 Legend Double Dagger -15.5 -18.2 80 31 31 24.1 101.03   -27 Ice Crystals,Blowing Snow
20:00 Legend Double Dagger -16.0 -18.7 80 30 26 24.1 101.04   -27 Ice Crystals,Blowing Snow
21:00 Legend Double Dagger -16.0 -18.7 80 30 32 24.1 101.04   -28 Ice Crystals,Blowing Snow
22:00 Legend Double Dagger -16.3 -19.0 80 30 35 24.1 101.10   -29 Ice Crystals,Blowing Snow
23:00 Legend Double Dagger -15.9 -18.6 80 31 37 24.1 101.12   -28 Ice Crystals,Blowing Snow

Notes on Data Quality.

Legend

  • E = Estimated
  • M = Missing
  • NA = Not Available
  • ‡ = Partner data that is not subject to review by the National Climate Archives
Date modified: